[Date Prev][Date Next][Thread Prev][Thread Next] - [Date Index][Thread Index][Author Index]

2 line ISS Keps 5-23



ISS
1 25544U 98067A   01143.34132784  .00039487  00000-0  47376-3 0  9936
2 25544  51.5693 214.0436 0017951  75.7984  50.8567 15.60313197143199

----
Via the sarex mailing list at AMSAT.ORG courtesy of AMSAT-NA.
To unsubscribe, send "unsubscribe sarex" to Majordomo@amsat.org



AMSAT Top AMSAT Home